Weather History for Arauca, Colombia

Change the Weather History Date:

Thursday, January 24, 2013

  Actual Average Record
Temperature  
Mean Temperature 82 °F -  
Max Temperature 93 °F 93 °F - ()
Min Temperature 71 °F 68 °F - ()
Cooling Degree Days 17    
Growing Degree Days 32 (Base 50)    
Moisture  
Dew Point 70 °F    
Average Humidity 61    
Maximum Humidity 94    
Minimum Humidity 39    
Precipitation  
Precipitation 0.00 in 0.01 in - ()
Sea Level Pressure  
Sea Level Pressure 29.90 in    
Wind  
Wind Speed 3 mph ()    
Max Wind Speed 12 mph    
Max Gust Speed -    
Visibility 7.3 miles    
Events      
T = Trace of Precipitation, MM = Missing Value Source: Averaged Metar Reports

Daily Weather History Graph

Daily Weather History Graph

Search for Another Location

Airport:

Trip Planner

Search our weather history database for the weather conditions in past years. The results will help you decide how hot, cold, wet, or windy it might be!

Date:

Astronomy

Jan. 24, 2013 Rise Set
Actual Time 6:01 AM COT 5:48 PM COT
Civil Twilight 5:39 AM COT 6:10 PM COT
Nautical Twilight 5:13 AM COT 6:36 PM COT
Astronomical Twilight 4:48 AM COT 7:01 PM COT
Moon 3:53 PM COT (1/24) 3:49 AM COT (1/24)
Length of Visible Light 12h 31m
Length of Day
11h 47m
Waxing Gibbous, 94% of the Moon is Illuminated
Jan 24
Waxing Gibbous
Jan 26
Full
Feb 3
Last Quarter
Feb 10
New
Feb 17
First Quarter

Hourly Weather History & Observations

Time (COT) Temp. Heat Index Dew Point Humidity Pressure Visibility Wind Dir Wind Speed Gust Speed Precip Events Conditions
12:00 AM 75.2 °F - 73.4 °F 94% 29.95 in 6.2 mi Calm Calm - N/A   Partly Cloudy
7:00 AM 73 °F - 70 °F 86% 29.78 in 10 mi Calm Calm - -   Scattered Clouds
7:00 AM 73.4 °F - 69.8 °F 88% 29.95 in 6.2 mi Calm Calm - N/A   Partly Cloudy
8:00 AM 77.0 °F - 71.6 °F 83% 29.97 in 6.2 mi Calm Calm - N/A   Partly Cloudy
9:00 AM 82.4 °F 87.2 °F 71.6 °F 70% 29.99 in - ESE 9.2 mph - N/A   Clear
10:00 AM 87 °F - 66 °F 40% 29.82 in 10 mi SE 11.2 mph - -   Clear
10:00 AM 87.8 °F 90.4 °F 66.2 °F 49% 30.00 in - SE 11.5 mph - N/A   Clear
11:00 AM 89.6 °F 93.4 °F 68.0 °F 49% 29.98 in - East 10.4 mph - N/A   Clear
12:00 PM 91.4 °F 96.8 °F 69.8 °F 49% 29.96 in 6.2 mi ESE 9.2 mph - N/A   Scattered Clouds
1:00 PM 90 °F - 69 °F 40% 29.76 in 10 mi ESE 6.7 mph - -   Partly Cloudy
1:00 PM 89.6 °F 94.7 °F 69.8 °F 52% 29.94 in 6.2 mi ESE 6.9 mph - N/A   Scattered Clouds
2:00 PM 91.4 °F 96.8 °F 69.8 °F 49% 29.92 in 6.2 mi ESE 8.1 mph - N/A   Scattered Clouds
3:00 PM 91.4 °F 96.8 °F 69.8 °F 49% 29.89 in 6.2 mi SE 6.9 mph - N/A   Scattered Clouds
4:00 PM 92 °F - 70 °F 39% 29.69 in 11 mi ESE 4.5 mph - -   Scattered Clouds
4:00 PM 93.2 °F 98.8 °F 69.8 °F 46% 29.88 in 6.2 mi ESE 4.6 mph - N/A   Partly Cloudy
5:00 PM 87.8 °F 92.6 °F 69.8 °F 55% 29.86 in 6.2 mi Calm Calm - N/A   Partly Cloudy
6:00 PM 86.0 °F 91.8 °F 71.6 °F 62% 29.88 in 6.2 mi Calm Calm - N/A   Partly Cloudy
7:00 PM 84.2 °F 90.9 °F 73.4 °F 70% 29.89 in 6.2 mi Calm Calm - N/A   Partly Cloudy
8:00 PM 82.4 °F 87.2 °F 71.6 °F 70% 29.90 in - Calm Calm - N/A   Clear
9:00 PM 80.6 °F 85.4 °F 73.4 °F 79% 29.92 in - Calm Calm - N/A   Clear